Location: Unspecified
(44.0704°N, 88.6889°W)
Time: 02:40:03
(UTC+02:00)

Altair - Pass Details

Date: 25 June 2019
Orbit: 1501 x 1683 km, 47.2° (Epoch: 19 August)

Event Time Altitude Azimuth Distance (km) Brightness Sun altitude
Rises 03:31:59 0° 241° (WSW) 4,680 10.5 0.7°
Reaches altitude 10° 03:34:58 10° 240° (WSW) 3,719 9.9 0.2°
Maximum altitude 03:44:25 82° 155° (SSE) 1,606 7.6 -1.2°
Drops below altitude 10° 03:54:18 10° 70° (ENE) 3,873 9.3 -2.6°
Sets 03:57:29 0° 69° (ENE) 4,882 9.8 -3.1°
